Jackson, KY

11:53 AM EDT on July 20, 2017 (GMT -0400)
Carroll

Weather History for KJKL - January, 2013

Change the Weather History Date:

Wednesday, January 30, 2013

  Actual Average Record
Temperature  
Mean Temperature 60 °F 36 °F  
Max Temperature 68 °F 44 °F 71 °F (2002)
Min Temperature 52 °F 27 °F 7 °F (2004)
Degree Days  
Heating Degree Days 5 29  
Month to date heating degree days 804 898  
Since 1 July heating degree days 2412 2532  
Cooling Degree Days 0 0  
Month to date cooling degree days 0 0  
Year to date cooling degree days 0 0  
Growing Degree Days 2 (Base 50)    
Moisture  
Dew Point 51 °F    
Average Humidity 82    
Maximum Humidity 100    
Minimum Humidity 63    
Precipitation  
Precipitation 1.50 in 0.12 in 1.79 in (2013)
Month to date precipitation 5.38 3.48  
Year to date precipitation 5.38 3.48  
Snow  
Snow 0.00 in 0.30 in 5.10 in (2010)
Month to date snowfall 0.2 6.8  
Since 1 July snowfall 3.1 12.3  
Snow Depth 0.00 in    
Sea Level Pressure  
Sea Level Pressure 29.56 in    
Wind  
Wind Speed 6 mph (SW)    
Max Wind Speed 32 mph    
Max Gust Speed 46 mph    
Visibility 5 miles    
Events Fog , Rain    
T = Trace of Precipitation, MM = Missing Value Source: NWS Daily Summary

Daily Weather History Graph

Daily Weather History Graph

Search for Another Location

Airport or City:

Trip Planner

Search our weather history database for the weather conditions in past years. The results will help you decide how hot, cold, wet, or windy it might be!

Date:

Astronomy

Jan. 30, 2013 Rise Set
Actual Time 7:38 AM EST 5:55 PM EST
Civil Twilight 7:10 AM EST 6:23 PM EST
Nautical Twilight 6:39 AM EST 6:54 PM EST
Astronomical Twilight 6:08 AM EST 7:25 PM EST
Moon 9:46 PM EST (1/30) 9:10 AM EST (1/30)
Length of Visible Light 11h 12m
Length of Day
10h 17m
Waning Gibbous, 88% of the Moon is Illuminated
Jan 30
Waning Gibbous
Feb 3
Last Quarter
Feb 10
New
Feb 17
First Quarter
Feb 25
Full

Hourly Weather History & Observations

Time (EST) Temp. Windchill Dew Point Humidity Pressure Visibility Wind Dir Wind Speed Gust Speed Precip Events Conditions
12:53 AM 63.0 °F - 51.1 °F 65% 29.73 in 10.0 mi South 6.9 mph 18.4 mph N/A   Clear
1:53 AM 64.0 °F - 53.1 °F 67% 29.68 in 10.0 mi Variable 4.6 mph - N/A   Clear
2:53 AM 64.0 °F - 53.1 °F 67% 29.66 in 10.0 mi Variable 6.9 mph - N/A   Mostly Cloudy
3:53 AM 64.0 °F - 53.1 °F 67% 29.62 in 10.0 mi SSW 8.1 mph - N/A   Scattered Clouds
4:53 AM 64.9 °F - 53.1 °F 65% 29.57 in 10.0 mi SSW 8.1 mph - N/A   Mostly Cloudy
5:53 AM 66.0 °F - 54.0 °F 65% 29.53 in 10.0 mi South 9.2 mph 29.9 mph N/A   Mostly Cloudy
6:53 AM 66.9 °F - 55.0 °F 66% 29.50 in 10.0 mi SSW 9.2 mph 34.5 mph N/A   Overcast
7:53 AM 68.0 °F - 55.0 °F 63% 29.47 in 10.0 mi South 11.5 mph 34.5 mph 0.00 in Rain Light Rain
8:01 AM 64.4 °F - 57.2 °F 77% 29.59 in 1.5 mi West 25.3 mph 46.0 mph N/A Rain Light Rain
8:07 AM 57.2 °F - 55.4 °F 94% 29.60 in 0.5 mi West 13.8 mph 46.0 mph 0.23 in Fog , Rain Heavy Rain
8:14 AM 57.2 °F - 55.4 °F 94% 29.63 in 1.2 mi West 15.0 mph 24.2 mph 0.26 in Rain Rain
8:17 AM 57.2 °F - 55.4 °F 94% 29.63 in 3.0 mi West 13.8 mph 24.2 mph 0.27 in Rain Light Rain
8:26 AM 57.2 °F - 55.4 °F 94% 29.64 in 2.0 mi West 13.8 mph 24.2 mph 0.30 in Rain Rain
8:31 AM 57.2 °F - 55.4 °F 94% 29.64 in 3.0 mi WSW 9.2 mph 24.2 mph 0.31 in Rain Light Rain
8:53 AM 57.9 °F - 55.9 °F 93% 29.62 in 8.0 mi Variable 5.8 mph 16.1 mph 0.32 in Rain Light Rain
9:15 AM 57.2 °F - 55.4 °F 94% 29.63 in 3.0 mi Variable 5.8 mph - 0.04 in Rain Light Rain
9:22 AM 57.2 °F - 55.4 °F 94% 29.65 in 4.0 mi SW 4.6 mph - 0.05 in Rain Light Rain
9:30 AM 57.2 °F - 55.4 °F 94% 29.65 in 2.5 mi Calm Calm - 0.07 in Rain Rain
9:36 AM 57.2 °F - 55.4 °F 94% 29.65 in 3.0 mi Variable 3.5 mph - 0.08 in Rain Rain
9:44 AM 57.2 °F - 55.4 °F 94% 29.66 in 1.8 mi Calm Calm - 0.09 in Rain Light Rain
9:47 AM 57.2 °F - 55.4 °F 94% 29.65 in 1.0 mi Calm Calm - 0.09 in Rain Light Rain
9:53 AM 55.9 °F - 55.0 °F 97% 29.65 in 0.8 mi South 3.5 mph - 0.10 in Rain Rain
9:56 AM 55.4 °F - 55.4 °F 100% 29.66 in 1.5 mi SSW 3.5 mph - 0.00 in Rain Rain
10:03 AM 55.4 °F - 55.4 °F 100% 29.65 in 1.2 mi Variable 3.5 mph - 0.05 in Rain Heavy Rain
10:24 AM 55.4 °F - 55.4 °F 100% 29.65 in 1.8 mi Calm Calm - 0.13 in Rain Rain
10:34 AM 55.4 °F - 55.4 °F 100% 29.64 in 1.2 mi SSE 3.5 mph - 0.17 in Rain Heavy Rain
10:42 AM 55.4 °F - 55.4 °F 100% 29.63 in 2.0 mi South 3.5 mph - 0.23 in Rain Rain
10:53 AM 55.9 °F - 55.0 °F 97% 29.61 in 5.0 mi SSE 4.6 mph - 0.25 in Rain Light Rain
11:11 AM 55.4 °F - 53.6 °F 94% 29.61 in 2.5 mi Variable 4.6 mph - 0.04 in Rain Rain
11:39 AM 55.4 °F - 55.4 °F 100% 29.59 in 4.0 mi Variable 5.8 mph - 0.11 in Rain Rain
11:50 AM 55.4 °F - 55.4 °F 100% 29.59 in 5.0 mi Variable 3.5 mph - 0.13 in Rain Light Rain
11:53 AM 55.9 °F - 55.0 °F 97% 29.57 in 4.0 mi South 5.8 mph - 0.13 in Rain Light Rain
12:10 PM 55.4 °F - 53.6 °F 94% 29.58 in 3.0 mi Variable 5.8 mph - 0.03 in Rain Rain
12:28 PM 55.4 °F - 53.6 °F 94% 29.57 in 2.5 mi SSE 4.6 mph - 0.08 in Rain Rain
12:53 PM 55.0 °F - 54.0 °F 96% 29.52 in 2.5 mi SSE 4.6 mph - 0.20 in Rain Rain
12:57 PM 55.4 °F - 53.6 °F 94% 29.55 in 2.0 mi South 3.5 mph - 0.01 in Rain Rain
1:06 PM 55.4 °F - 53.6 °F 94% 29.54 in 1.8 mi Variable 3.5 mph - 0.03 in Rain Rain
1:09 PM 55.4 °F - 53.6 °F 94% 29.54 in 3.0 mi Calm Calm - 0.04 in Rain Rain
1:53 PM 55.0 °F - 54.0 °F 96% 29.49 in 3.0 mi Variable 4.6 mph - 0.15 in Rain Rain
2:02 PM 55.4 °F - 53.6 °F 94% 29.50 in 2.0 mi Variable 3.5 mph - 0.02 in Rain Rain
2:10 PM 55.4 °F - 53.6 °F 94% 29.50 in 1.8 mi Variable 4.6 mph - 0.06 in Rain Rain
2:25 PM 55.4 °F - 53.6 °F 94% 29.49 in 1.5 mi Variable 3.5 mph - 0.12 in Rain Heavy Rain
2:38 PM 55.4 °F - 53.6 °F 94% 29.48 in 2.0 mi Variable 3.5 mph - 0.18 in Rain Rain
2:48 PM 55.4 °F - 53.6 °F 94% 29.48 in 4.0 mi SSW 8.1 mph - 0.19 in Rain Light Rain
2:53 PM 55.0 °F - 53.1 °F 93% 29.46 in 4.0 mi Variable 4.6 mph - 0.20 in Rain Rain
3:03 PM 53.6 °F - 53.6 °F 100% 29.49 in 2.0 mi Variable 4.6 mph - 0.03 in Rain Rain
3:11 PM 53.6 °F - 53.6 °F 100% 29.48 in 1.8 mi Variable 6.9 mph - 0.06 in Rain Rain
3:18 PM 53.6 °F - 53.6 °F 100% 29.47 in 2.5 mi Variable 4.6 mph - 0.08 in Rain Rain
3:25 PM 53.6 °F - 53.6 °F 100% 29.47 in 4.0 mi SW 9.2 mph 18.4 mph 0.09 in Rain Light Rain
3:33 PM 53.6 °F - 51.8 °F 94% 29.47 in 4.0 mi Variable 5.8 mph 18.4 mph 0.10 in Rain Light Rain
3:53 PM 53.1 °F - 50.0 °F 89% 29.45 in 4.0 mi Variable 6.9 mph 19.6 mph 0.14 in Rain Light Rain
4:53 PM 50.0 °F - 46.9 °F 89% 29.44 in 2.5 mi SSW 8.1 mph - 0.12 in Rain Rain
5:06 PM 48.2 °F - 46.4 °F 93% 29.46 in 4.0 mi SSW 5.8 mph - 0.02 in Rain Light Rain
5:53 PM 48.0 °F - 43.0 °F 83% 29.44 in 10.0 mi South 8.1 mph - 0.06 in   Overcast
6:53 PM 48.0 °F - 42.1 °F 80% 29.39 in 10.0 mi Variable 5.8 mph - 0.00 in Rain Light Rain
7:53 PM 48.0 °F - 41.0 °F 77% 29.40 in 10.0 mi Variable 5.8 mph - 0.00 in   Overcast
8:53 PM 48.0 °F - 39.0 °F 71% 29.41 in 10.0 mi SW 8.1 mph 18.4 mph N/A   Overcast
9:19 PM 39.2 °F 31.6 °F 35.6 °F 87% 29.48 in 2.5 mi WSW 12.7 mph 41.4 mph 0.03 in Rain Heavy Rain
9:27 PM 39.2 °F 31.2 °F 37.4 °F 93% 29.48 in 5.0 mi West 13.8 mph 33.4 mph 0.04 in Rain Light Rain
9:48 PM 39.2 °F 31.6 °F 37.4 °F 93% 29.51 in 8.0 mi West 12.7 mph 23.0 mph 0.06 in Rain Light Rain
9:53 PM 39.9 °F 33.4 °F 37.0 °F 89% 29.52 in 9.0 mi WSW 10.4 mph 23.0 mph 0.06 in Rain Light Rain
10:07 PM 39.2 °F 35.0 °F 37.4 °F 93% 29.51 in 8.0 mi Variable 5.8 mph - 0.01 in Rain Light Rain
10:53 PM 37.9 °F 30.5 °F 36.0 °F 93% 29.52 in 10.0 mi West 11.5 mph 21.9 mph 0.04 in Rain Light Rain
11:53 PM 34.0 °F 23.8 °F 30.9 °F 89% 29.59 in 10.0 mi West 16.1 mph 33.4 mph 0.02 in Rain Light Rain